| time (UTC) | temp C | wind direction | speed KPH | gust KPH | rain 1hr cm | rain 24hr cm | rain mn cm | humidity % | barometer mb |
| 20260504023359 | 9 | 323 | 0.0 | 0.0 | 0.00 | 0.00 | 0.00 | 79 | 1013.6 |
| 20260504023159 | 9 | 323 | 0.0 | 0.0 | 0.00 | 0.00 | 0.00 | 79 | 1013.6 |
| 20260504022959 | 9 | 323 | 0.0 | 0.0 | 0.00 | 0.00 | 0.00 | 79 | 1013.6 |
| 20260504022759 | 9 | 323 | 0.0 | 0.0 | 0.00 | 0.00 | 0.00 | 78 | 1013.6 |
| 20260504022559 | 9 | 323 | 0.0 | 0.0 | 0.00 | 0.00 | 0.00 | 78 | 1013.7 |
| 20260504022359 | 9 | 323 | 0.0 | 0.0 | 0.00 | 0.00 | 0.00 | 78 | 1013.7 |
| 20260504022159 | 9 | 323 | 0.0 | 0.0 | 0.00 | 0.00 | 0.00 | 78 | 1013.7 |
| 20260504021959 | 9 | 323 | 0.0 | 0.0 | 0.00 | 0.00 | 0.00 | 77 | 1013.7 |
| 20260504021759 | 9 | 323 | 0.0 | 0.0 | 0.00 | 0.00 | 0.00 | 77 | 1013.7 |
| 20260504021559 | 9 | 323 | 0.0 | 0.0 | 0.00 | 0.00 | 0.00 | 77 | 1013.7 |
| 20260504021159 | 9 | 323 | 0.0 | 0.0 | 0.00 | 0.00 | 0.00 | 77 | 1013.8 |
| 20260504020959 | 9 | 323 | 0.0 | 0.0 | 0.00 | 0.00 | 0.00 | 77 | 1013.7 |
| 20260504020759 | 10 | 323 | 0.0 | 0.0 | 0.00 | 0.00 | 0.00 | 76 | 1013.7 |
| 20260504020559 | 10 | 323 | 0.0 | 0.0 | 0.00 | 0.00 | 0.00 | 76 | 1013.7 |
| 20260504020159 | 10 | 323 | 0.0 | 0.0 | 0.00 | 0.00 | 0.00 | 74 | 1013.7 |
| 20260504015800 | 10 | 323 | 0.0 | 0.0 | 0.00 | 0.00 | 0.00 | 73 | 1013.7 |
| 20260504015559 | 10 | 323 | 0.0 | 0.0 | 0.00 | 0.00 | 0.00 | 73 | 1013.7 |
| 20260504015159 | 10 | 323 | 0.0 | 1.6 | 0.00 | 0.00 | 0.00 | 73 | 1013.8 |
| 20260504015000 | 10 | 323 | 0.0 | 1.6 | 0.00 | 0.00 | 0.00 | 73 | 1013.7 |
| 20260504014759 | 10 | 323 | 0.0 | 1.6 | 0.00 | 0.00 | 0.00 | 72 | 1013.7 |
| 20260504014600 | 10 | 323 | 0.0 | 1.6 | 0.00 | 0.00 | 0.00 | 72 | 1013.7 |
| 20260504014359 | 10 | 268 | 0.0 | 1.6 | 0.00 | 0.00 | 0.00 | 72 | 1013.6 |
| 20260504014200 | 10 | 267 | 0.0 | 0.0 | 0.00 | 0.00 | 0.00 | 70 | 1013.6 |
| 20260504013959 | 10 | 267 | 0.0 | 0.0 | 0.00 | 0.00 | 0.00 | 69 | 1013.6 |
| 20260504013800 | 10 | 268 | 0.0 | 0.0 | 0.00 | 0.00 | 0.00 | 69 | 1013.6 |
| 20260504013559 | 11 | 268 | 0.0 | 0.0 | 0.00 | 0.00 | 0.00 | 68 | 1013.6 |
| 20260504013400 | 11 | 267 | 0.0 | 0.0 | 0.00 | 0.00 | 0.00 | 67 | 1013.6 |
| 20260504013159 | 11 | 267 | 0.0 | 0.0 | 0.00 | 0.00 | 0.00 | 66 | 1013.6 |
| 20260504012759 | 11 | 268 | 0.0 | 0.0 | 0.00 | 0.00 | 0.00 | 66 | 1013.7 |
| 20260504012600 | 11 | 268 | 0.0 | 0.0 | 0.00 | 0.00 | 0.00 | 64 | 1013.7 |
| 20260504012359 | 12 | 268 | 0.0 | 0.0 | 0.00 | 0.00 | 0.00 | 64 | 1013.7 |
| 20260504012200 | 12 | 268 | 0.0 | 0.0 | 0.00 | 0.00 | 0.00 | 64 | 1013.7 |
| 20260504011559 | 12 | 268 | 0.0 | 0.0 | 0.00 | 0.00 | 0.00 | 62 | 1013.7 |
| 20260504011401 | 12 | 268 | 0.0 | 0.0 | 0.00 | 0.00 | 0.00 | 62 | 1013.7 |
| 20260504011159 | 12 | 267 | 0.0 | 0.0 | 0.00 | 0.00 | 0.00 | 62 | 1013.7 |
| 20260504010959 | 13 | 267 | 0.0 | 1.6 | 0.00 | 0.00 | 0.00 | 61 | 1013.6 |
| 20260504010559 | 13 | 267 | 0.0 | 1.6 | 0.00 | 0.00 | 0.00 | 60 | 1013.7 |
| 20260504010400 | 13 | 268 | 0.0 | 1.6 | 0.00 | 0.00 | 0.00 | 59 | 1013.6 |
| 20260504010159 | 13 | 269 | 0.0 | 1.6 | 0.00 | 0.00 | 0.00 | 58 | 1013.6 |
| 20260504010004 | 13 | 266 | 0.0 | 3.2 | 0.00 | 0.00 | 0.00 | 58 | 1013.6 |
| 20260504005759 | 13 | 266 | 1.6 | 3.2 | 0.00 | 0.00 | 0.00 | 57 | 1013.5 |
| 20260504005359 | 13 | 307 | 1.6 | 3.2 | 0.00 | 0.00 | 0.00 | 57 | 1013.5 |
| 20260504005200 | 13 | 279 | 1.6 | 3.2 | 0.00 | 0.00 | 0.00 | 57 | 1013.4 |
| 20260504004959 | 14 | 285 | 0.0 | 3.2 | 0.00 | 0.00 | 0.00 | 56 | 1013.3 |
| 20260504004800 | 14 | 279 | 0.0 | 1.6 | 0.00 | 0.00 | 0.00 | 56 | 1013.3 |
| 20260504004559 | 14 | 278 | 0.0 | 3.2 | 0.00 | 0.00 | 0.00 | 55 | 1013.2 |
| 20260504004400 | 14 | 269 | 1.6 | 6.4 | 0.00 | 0.00 | 0.00 | 55 | 1013.2 |
| 20260504004159 | 14 | 269 | 1.6 | 6.4 | 0.00 | 0.00 | 0.00 | 55 | 1013.2 |
| 20260504004000 | 15 | 262 | 1.6 | 6.4 | 0.00 | 0.00 | 0.00 | 54 | 1013.2 |
| 20260504003759 | 15 | 235 | 1.6 | 6.4 | 0.00 | 0.00 | 0.00 | 54 | 1013.2 |
| 20260504003600 | 15 | 231 | 1.6 | 4.8 | 0.00 | 0.00 | 0.00 | 54 | 1013.2 |
| 20260504003200 | 15 | 236 | 1.6 | 6.4 | 0.00 | 0.00 | 0.00 | 53 | 1013.1 |
| 20260504003000 | 15 | 217 | 1.6 | 6.4 | 0.00 | 0.00 | 0.00 | 53 | 1013.0 |
| 20260504002800 | 15 | 217 | 3.2 | 9.7 | 0.00 | 0.00 | 0.00 | 53 | 1013.1 |
| 20260504002559 | 15 | 238 | 3.2 | 11.3 | 0.00 | 0.00 | 0.00 | 52 | 1013.0 |
| 20260504002400 | 15 | 224 | 3.2 | 11.3 | 0.00 | 0.00 | 0.00 | 52 | 1013.0 |
| 20260504002159 | 15 | 198 | 3.2 | 11.3 | 0.00 | 0.00 | 0.00 | 52 | 1013.1 |
| 20260504001759 | 15 | 266 | 4.8 | 14.5 | 0.00 | 0.00 | 0.00 | 51 | 1013.0 |
| 20260504001600 | 15 | 249 | 3.2 | 14.5 | 0.00 | 0.00 | 0.00 | 52 | 1013.0 |
| 20260504001359 | 15 | 158 | 3.2 | 14.5 | 0.00 | 0.00 | 0.00 | 51 | 1013.0 |
| 20260504000959 | 15 | 186 | 4.8 | 12.9 | 0.00 | 0.00 | 0.00 | 51 | 1012.9 |
| 20260504000800 | 15 | 262 | 4.8 | 12.9 | 0.00 | 0.00 | 0.00 | 51 | 1012.9 |
| 20260504000559 | 15 | 271 | 6.4 | 12.9 | 0.00 | 0.00 | 0.00 | 51 | 1012.9 |
| 20260504000159 | 16 | 208 | 6.4 | 14.5 | 0.00 | 0.00 | 0.00 | 50 | 1012.9 |
| 20260503235759 | 16 | 176 | 6.4 | 14.5 | 0.00 | 0.00 | 0.00 | 50 | 1012.9 |
| 20260503235600 | 16 | 214 | 8.0 | 16.1 | 0.00 | 0.00 | 0.00 | 50 | 1013.0 |
| 20260503235359 | 16 | 274 | 8.0 | 16.1 | 0.00 | 0.00 | 0.00 | 50 | 1013.0 |
| 20260503235200 | 16 | 211 | 8.0 | 16.1 | 0.00 | 0.00 | 0.00 | 49 | 1012.9 |
| 20260503234959 | 16 | 237 | 8.0 | 16.1 | 0.00 | 0.00 | 0.00 | 50 | 1013.0 |
| 20260503234800 | 16 | 254 | 9.7 | 16.1 | 0.00 | 0.00 | 0.00 | 49 | 1012.9 |
| 20260503234559 | 16 | 227 | 9.7 | 20.9 | 0.00 | 0.00 | 0.00 | 49 | 1012.8 |
| 20260503234401 | 16 | 203 | 9.7 | 20.9 | 0.00 | 0.00 | 0.00 | 50 | 1012.8 |
| 20260503234159 | 16 | 229 | 9.7 | 20.9 | 0.00 | 0.00 | 0.00 | 49 | 1012.8 |
| 20260503234000 | 16 | 252 | 9.7 | 20.9 | 0.00 | 0.00 | 0.00 | 48 | 1012.7 |
| 20260503233759 | 16 | 224 | 9.7 | 17.7 | 0.00 | 0.00 | 0.00 | 50 | 1012.8 |
| 20260503233600 | 16 | 198 | 9.7 | 17.7 | 0.00 | 0.00 | 0.00 | 49 | 1012.8 |
| 20260503233200 | 16 | 240 | 8.0 | 17.7 | 0.00 | 0.00 | 0.00 | 49 | 1012.9 |
| 20260503232959 | 16 | 186 | 6.4 | 14.5 | 0.00 | 0.00 | 0.00 | 49 | 1012.9 |
| 20260503232800 | 16 | 246 | 6.4 | 14.5 | 0.00 | 0.00 | 0.00 | 49 | 1013.0 |
| 20260503232400 | 16 | 248 | 8.0 | 20.9 | 0.00 | 0.00 | 0.00 | 50 | 1013.0 |
| 20260503232159 | 16 | 245 | 9.7 | 20.9 | 0.00 | 0.00 | 0.00 | 49 | 1012.9 |
| 20260503231759 | 16 | 211 | 9.7 | 20.9 | 0.00 | 0.00 | 0.00 | 49 | 1012.8 |
| 20260503231600 | 16 | 174 | 8.0 | 20.9 | 0.00 | 0.00 | 0.00 | 49 | 1012.8 |
| 20260503231359 | 16 | 226 | 8.0 | 20.9 | 0.00 | 0.00 | 0.00 | 48 | 1012.9 |
| 20260503230800 | 17 | 221 | 9.7 | 17.7 | 0.00 | 0.00 | 0.00 | 48 | 1013.0 |
| 20260503230559 | 17 | 266 | 9.7 | 17.7 | 0.00 | 0.00 | 0.00 | 47 | 1013.0 |
| 20260503230400 | 17 | 229 | 9.7 | 19.3 | 0.00 | 0.00 | 0.00 | 48 | 1013.0 |
| 20260503230159 | 17 | 245 | 9.7 | 19.3 | 0.00 | 0.00 | 0.00 | 46 | 1013.0 |
| 20260503230003 | 17 | 173 | 8.0 | 19.3 | 0.00 | 0.00 | 0.00 | 47 | 1013.0 |
| 20260503225759 | 17 | 231 | 8.0 | 19.3 | 0.00 | 0.00 | 0.00 | 47 | 1013.1 |
| 20260503225559 | 17 | 240 | 8.0 | 19.3 | 0.00 | 0.00 | 0.00 | 47 | 1013.1 |
| 20260503225159 | 17 | 237 | 6.4 | 17.7 | 0.00 | 0.00 | 0.00 | 47 | 1013.3 |
| 20260503224759 | 17 | 221 | 6.4 | 17.7 | 0.00 | 0.00 | 0.00 | 47 | 1013.4 |
| 20260503224559 | 17 | 176 | 6.4 | 16.1 | 0.00 | 0.00 | 0.00 | 48 | 1013.4 |
| 20260503224359 | 17 | 233 | 8.0 | 16.1 | 0.00 | 0.00 | 0.00 | 49 | 1013.5 |
| 20260503224200 | 17 | 202 | 8.0 | 22.5 | 0.00 | 0.00 | 0.00 | 48 | 1013.5 |
| 20260503223959 | 16 | 245 | 8.0 | 22.5 | 0.00 | 0.00 | 0.00 | 49 | 1013.6 |
| 20260503223759 | 16 | 168 | 8.0 | 22.5 | 0.00 | 0.00 | 0.00 | 47 | 1013.6 |
| 20260503223559 | 16 | 214 | 8.0 | 22.5 | 0.00 | 0.00 | 0.00 | 48 | 1013.6 |
| 20260503223359 | 16 | 158 | 8.0 | 17.7 | 0.00 | 0.00 | 0.00 | 48 | 1013.7 |
| 20260503223200 | 16 | 206 | 6.4 | 17.7 | 0.00 | 0.00 | 0.00 | 49 | 1013.8 |
| 20260503223000 | 16 | 248 | 8.0 | 17.7 | 0.00 | 0.00 | 0.00 | 47 | 1013.8 |
| 20260503222759 | 17 | 198 | 8.0 | 19.3 | 0.00 | 0.00 | 0.00 | 49 | 1013.8 |
| 20260503222559 | 17 | 200 | 8.0 | 19.3 | 0.00 | 0.00 | 0.00 | 46 | 1013.8 |
| 20260503222358 | 17 | 142 | 6.4 | 19.3 | 0.00 | 0.00 | 0.00 | 48 | 1013.9 |
| 20260503222159 | 17 | 236 | 8.0 | 19.3 | 0.00 | 0.00 | 0.00 | 46 | 1014.0 |
| 20260503221959 | 17 | 191 | 8.0 | 17.7 | 0.00 | 0.00 | 0.00 | 47 | 1014.0 |
| 20260503221759 | 17 | 214 | 8.0 | 22.5 | 0.00 | 0.00 | 0.00 | 47 | 1014.0 |
| 20260503221559 | 17 | 199 | 8.0 | 22.5 | 0.00 | 0.00 | 0.00 | 46 | 1014.0 |
| 20260503221359 | 17 | 188 | 8.0 | 22.5 | 0.00 | 0.00 | 0.00 | 45 | 1014.1 |
| 20260503220959 | 17 | 200 | 8.0 | 24.1 | 0.00 | 0.00 | 0.00 | 46 | 1014.1 |
| 20260503220759 | 17 | 229 | 9.7 | 24.1 | 0.00 | 0.00 | 0.00 | 45 | 1014.1 |
| 20260503220559 | 17 | 195 | 11.3 | 24.1 | 0.00 | 0.00 | 0.00 | 44 | 1014.1 |
| 20260503220004 | 17 | 191 | 11.3 | 24.1 | 0.00 | 0.00 | 0.00 | 45 | 1014.1 |
| 20260503215600 | 17 | 241 | 11.3 | 22.5 | 0.00 | 0.00 | 0.00 | 45 | 1014.1 |
| 20260503215359 | 17 | 160 | 11.3 | 22.5 | 0.00 | 0.00 | 0.00 | 44 | 1014.2 |
| 20260503215201 | 17 | 196 | 11.3 | 22.5 | 0.00 | 0.00 | 0.00 | 45 | 1014.2 |
| 20260503214959 | 17 | 252 | 11.3 | 22.5 | 0.00 | 0.00 | 0.00 | 44 | 1014.2 |
| 20260503214759 | 17 | 188 | 11.3 | 22.5 | 0.00 | 0.00 | 0.00 | 44 | 1014.3 |
| 20260503214559 | 17 | 202 | 11.3 | 22.5 | 0.00 | 0.00 | 0.00 | 45 | 1014.3 |
| 20260503214400 | 17 | 215 | 11.3 | 22.5 | 0.00 | 0.00 | 0.00 | 44 | 1014.5 |
| 20260503214159 | 17 | 223 | 12.9 | 22.5 | 0.00 | 0.00 | 0.00 | 43 | 1014.6 |
| 20260503214000 | 17 | 205 | 12.9 | 22.5 | 0.00 | 0.00 | 0.00 | 43 | 1014.7 |
| 20260503213600 | 17 | 198 | 12.9 | 25.7 | 0.00 | 0.00 | 0.00 | 44 | 1014.7 |
| 20260503213359 | 17 | 205 | 12.9 | 25.7 | 0.00 | 0.00 | 0.00 | 42 | 1014.7 |
| 20260503213200 | 17 | 174 | 11.3 | 25.7 | 0.00 | 0.00 | 0.00 | 42 | 1014.7 |
| 20260503212959 | 17 | 228 | 9.7 | 25.7 | 0.00 | 0.00 | 0.00 | 43 | 1014.7 |
| 20260503212759 | 17 | 195 | 9.7 | 25.7 | 0.00 | 0.00 | 0.00 | 42 | 1014.7 |
| 20260503212559 | 17 | 202 | 8.0 | 17.7 | 0.00 | 0.00 | 0.00 | 43 | 1014.8 |
| 20260503212000 | 17 | 240 | 8.0 | 17.7 | 0.00 | 0.00 | 0.00 | 42 | 1015.0 |
| 20260503211759 | 17 | 293 | 8.0 | 17.7 | 0.00 | 0.00 | 0.00 | 44 | 1014.9 |
| 20260503211600 | 17 | 306 | 9.7 | 17.7 | 0.00 | 0.00 | 0.00 | 42 | 1015.1 |
| 20260503211359 | 17 | 243 | 8.0 | 17.7 | 0.00 | 0.00 | 0.00 | 41 | 1015.2 |
| 20260503210759 | 17 | 238 | 8.0 | 20.9 | 0.00 | 0.00 | 0.00 | 43 | 1015.1 |
| 20260503210600 | 17 | 199 | 9.7 | 20.9 | 0.00 | 0.00 | 0.00 | 45 | 1015.0 |
| 20260503210359 | 17 | 217 | 11.3 | 27.4 | 0.00 | 0.00 | 0.00 | 43 | 1015.0 |
| 20260503210159 | 17 | 227 | 11.3 | 27.4 | 0.00 | 0.00 | 0.00 | 42 | 1015.0 |
| 20260503210001 | 17 | 271 | 12.9 | 27.4 | 0.00 | 0.00 | 0.00 | 41 | 1015.0 |
| 20260503205759 | 17 | 255 | 12.9 | 27.4 | 0.00 | 0.00 | 0.00 | 43 | 1014.9 |
| 20260503205559 | 17 | 248 | 12.9 | 27.4 | 0.00 | 0.00 | 0.00 | 43 | 1014.8 |
| 20260503205359 | 17 | 197 | 12.9 | 25.7 | 0.00 | 0.00 | 0.00 | 42 | 1014.7 |
| 20260503205159 | 17 | 199 | 11.3 | 25.7 | 0.00 | 0.00 | 0.00 | 42 | 1014.7 |
| 20260503204959 | 17 | 176 | 11.3 | 25.7 | 0.00 | 0.00 | 0.00 | 42 | 1014.7 |
| 20260503204759 | 17 | 223 | 9.7 | 25.7 | 0.00 | 0.00 | 0.00 | 41 | 1014.8 |
| 20260503204559 | 17 | 236 | 8.0 | 22.5 | 0.00 | 0.00 | 0.00 | 42 | 1014.9 |
| 20260503204359 | 17 | 216 | 11.3 | 24.1 | 0.00 | 0.00 | 0.00 | 41 | 1014.9 |
| 20260503204159 | 17 | 154 | 12.9 | 29.0 | 0.00 | 0.00 | 0.00 | 43 | 1015.1 |
| 20260503203959 | 17 | 224 | 12.9 | 29.0 | 0.00 | 0.00 | 0.00 | 45 | 1015.2 |
| 20260503203559 | 17 | 200 | 16.1 | 29.0 | 0.00 | 0.00 | 0.00 | 42 | 1015.2 |
| 20260503203359 | 17 | 195 | 14.5 | 27.4 | 0.00 | 0.00 | 0.00 | 44 | 1015.3 |
| 20260503203159 | 17 | 207 | 14.5 | 27.4 | 0.00 | 0.00 | 0.00 | 41 | 1015.4 |
| 20260503202959 | 17 | 233 | 12.9 | 27.4 | 0.00 | 0.00 | 0.00 | 41 | 1015.5 |
| 20260503202759 | 17 | 207 | 14.5 | 24.1 | 0.00 | 0.00 | 0.00 | 42 | 1015.3 |
| 20260503202359 | 17 | 196 | 12.9 | 24.1 | 0.00 | 0.00 | 0.00 | 41 | 1015.5 |
| 20260503202159 | 17 | 165 | 12.9 | 24.1 | 0.00 | 0.00 | 0.00 | 41 | 1015.5 |
| 20260503201959 | 17 | 152 | 12.9 | 24.1 | 0.00 | 0.00 | 0.00 | 41 | 1015.5 |
| 20260503201759 | 17 | 145 | 11.3 | 22.5 | 0.00 | 0.00 | 0.00 | 41 | 1015.6 |
| 20260503201559 | 17 | 168 | 11.3 | 22.5 | 0.00 | 0.00 | 0.00 | 41 | 1015.6 |
| 20260503201359 | 17 | 245 | 11.3 | 22.5 | 0.00 | 0.00 | 0.00 | 41 | 1015.7 |
| 20260503201201 | 17 | 170 | 9.7 | 22.5 | 0.00 | 0.00 | 0.00 | 41 | 1015.7 |
| 20260503200959 | 17 | 253 | 9.7 | 19.3 | 0.00 | 0.00 | 0.00 | 41 | 1015.7 |
| 20260503200759 | 17 | 219 | 11.3 | 20.9 | 0.00 | 0.00 | 0.00 | 40 | 1015.8 |
| 20260503200559 | 17 | 197 | 11.3 | 20.9 | 0.00 | 0.00 | 0.00 | 42 | 1015.9 |
| 20260503200359 | 17 | 205 | 11.3 | 20.9 | 0.00 | 0.00 | 0.00 | 42 | 1015.9 |
| 20260503200159 | 17 | 266 | 11.3 | 20.9 | 0.00 | 0.00 | 0.00 | 42 | 1015.9 |
| 20260503195400 | 16 | 198 | 12.9 | 24.1 | 0.00 | 0.00 | 0.00 | 43 | 1016.1 |
| 20260503195000 | 16 | 179 | 11.3 | 22.5 | 0.00 | 0.00 | 0.00 | 40 | 1016.3 |
| 20260503194759 | 16 | 164 | 9.7 | 20.9 | 0.00 | 0.00 | 0.00 | 43 | 1016.3 |
| 20260503194359 | 16 | 160 | 11.3 | 25.7 | 0.00 | 0.00 | 0.00 | 40 | 1016.3 |
| 20260503194159 | 16 | 221 | 11.3 | 25.7 | 0.00 | 0.00 | 0.00 | 41 | 1016.4 |
| 20260503193959 | 16 | 259 | 12.9 | 25.7 | 0.00 | 0.00 | 0.00 | 41 | 1016.4 |
| 20260503193801 | 16 | 196 | 12.9 | 25.7 | 0.00 | 0.00 | 0.00 | 42 | 1016.4 |
| 20260503193559 | 16 | 154 | 12.9 | 24.1 | 0.00 | 0.00 | 0.00 | 40 | 1016.5 |
| 20260503193400 | 16 | 203 | 12.9 | 24.1 | 0.00 | 0.00 | 0.00 | 41 | 1016.6 |
| 20260503193001 | 16 | 152 | 9.7 | 24.1 | 0.00 | 0.00 | 0.00 | 40 | 1016.7 |
| 20260503192759 | 16 | 193 | 8.0 | 24.1 | 0.00 | 0.00 | 0.00 | 41 | 1016.9 |
| 20260503192559 | 16 | 135 | 8.0 | 17.7 | 0.00 | 0.00 | 0.00 | 40 | 1016.9 |
| 20260503192359 | 16 | 183 | 8.0 | 17.7 | 0.00 | 0.00 | 0.00 | 40 | 1017.0 |
| 20260503192200 | 16 | 297 | 9.7 | 17.7 | 0.00 | 0.00 | 0.00 | 41 | 1017.0 |
| 20260503191959 | 16 | 237 | 11.3 | 25.7 | 0.00 | 0.00 | 0.00 | 40 | 1017.0 |
| 20260503191759 | 16 | 225 | 9.7 | 25.7 | 0.00 | 0.00 | 0.00 | 41 | 1017.0 |
| 20260503191559 | 16 | 162 | 9.7 | 25.7 | 0.00 | 0.00 | 0.00 | 40 | 1017.1 |
| 20260503191400 | 16 | 166 | 11.3 | 25.7 | 0.00 | 0.00 | 0.00 | 44 | 1017.2 |
| 20260503191200 | 16 | 240 | 11.3 | 25.7 | 0.00 | 0.00 | 0.00 | 41 | 1017.2 |
| 20260503190959 | 16 | 187 | 11.3 | 20.9 | 0.00 | 0.00 | 0.00 | 40 | 1017.1 |
| 20260503190800 | 16 | 197 | 11.3 | 20.9 | 0.00 | 0.00 | 0.00 | 40 | 1017.3 |
| 20260503190559 | 16 | 128 | 12.9 | 22.5 | 0.00 | 0.00 | 0.00 | 38 | 1017.4 |
| 20260503190359 | 16 | 245 | 12.9 | 24.1 | 0.00 | 0.00 | 0.00 | 40 | 1017.4 |
| 20260503190003 | 16 | 221 | 11.3 | 25.7 | 0.00 | 0.00 | 0.00 | 42 | 1017.4 |
| 20260503185759 | 16 | 203 | 12.9 | 25.7 | 0.00 | 0.00 | 0.00 | 38 | 1017.4 |
| 20260503185600 | 16 | 140 | 11.3 | 25.7 | 0.00 | 0.00 | 0.00 | 40 | 1017.5 |
| 20260503185359 | 16 | 209 | 11.3 | 24.1 | 0.00 | 0.00 | 0.00 | 42 | 1017.5 |
| 20260503185200 | 16 | 236 | 11.3 | 24.1 | 0.00 | 0.00 | 0.00 | 43 | 1017.5 |
| 20260503184959 | 16 | 160 | 11.3 | 24.1 | 0.00 | 0.00 | 0.00 | 42 | 1017.6 |
| 20260503184800 | 16 | 86 | 11.3 | 19.3 | 0.00 | 0.00 | 0.00 | 42 | 1017.6 |
| 20260503184559 | 16 | 214 | 9.7 | 19.3 | 0.00 | 0.00 | 0.00 | 42 | 1017.6 |
| 20260503184400 | 16 | 187 | 9.7 | 19.3 | 0.00 | 0.00 | 0.00 | 39 | 1017.7 |
| 20260503184159 | 16 | 208 | 9.7 | 25.7 | 0.00 | 0.00 | 0.00 | 42 | 1017.6 |
| 20260503184000 | 16 | 211 | 11.3 | 25.7 | 0.00 | 0.00 | 0.00 | 40 | 1017.8 |
| 20260503183758 | 16 | 200 | 11.3 | 25.7 | 0.00 | 0.00 | 0.00 | 39 | 1017.8 |
| 20260503183359 | 16 | 242 | 12.9 | 24.1 | 0.00 | 0.00 | 0.00 | 41 | 1017.9 |
| 20260503183159 | 16 | 150 | 11.3 | 24.1 | 0.00 | 0.00 | 0.00 | 40 | 1017.9 |
| 20260503182959 | 16 | 179 | 11.3 | 24.1 | 0.00 | 0.00 | 0.00 | 40 | 1017.9 |
| 20260503182800 | 16 | 154 | 11.3 | 24.1 | 0.00 | 0.00 | 0.00 | 42 | 1017.9 |
| 20260503182559 | 16 | 167 | 11.3 | 24.1 | 0.00 | 0.00 | 0.00 | 39 | 1017.9 |
| 20260503182359 | 16 | 226 | 9.7 | 24.1 | 0.00 | 0.00 | 0.00 | 39 | 1018.1 |
| 20260503182159 | 16 | 170 | 9.7 | 24.1 | 0.00 | 0.00 | 0.00 | 43 | 1018.1 |
| 20260503182000 | 16 | 228 | 9.7 | 24.1 | 0.00 | 0.00 | 0.00 | 41 | 1018.1 |
| 20260503181759 | 15 | 218 | 9.7 | 27.4 | 0.00 | 0.00 | 0.00 | 40 | 1018.0 |
| 20260503181600 | 15 | 265 | 8.0 | 27.4 | 0.00 | 0.00 | 0.00 | 42 | 1018.2 |
| 20260503181359 | 16 | 256 | 8.0 | 27.4 | 0.00 | 0.00 | 0.00 | 40 | 1018.2 |
| 20260503181159 | 16 | 272 | 6.4 | 27.4 | 0.00 | 0.00 | 0.00 | 40 | 1018.2 |
| 20260503181001 | 16 | 208 | 6.4 | 27.4 | 0.00 | 0.00 | 0.00 | 40 | 1018.2 |
| 20260503180759 | 16 | 267 | 6.4 | 14.5 | 0.00 | 0.00 | 0.00 | 43 | 1018.2 |
| 20260503180559 | 16 | 295 | 8.0 | 25.7 | 0.00 | 0.00 | 0.00 | 45 | 1018.2 |
| 20260503180359 | 15 | 289 | 9.7 | 25.7 | 0.00 | 0.00 | 0.00 | 43 | 1018.2 |
| 20260503180158 | 15 | 158 | 9.7 | 25.7 | 0.00 | 0.00 | 0.00 | 41 | 1018.2 |
| 20260503180002 | 15 | 155 | 12.9 | 25.7 | 0.00 | 0.00 | 0.00 | 44 | 1018.3 |
| 20260503175559 | 15 | 160 | 12.9 | 25.7 | 0.00 | 0.00 | 0.00 | 43 | 1018.3 |
| 20260503175359 | 15 | 198 | 11.3 | 25.7 | 0.00 | 0.00 | 0.00 | 41 | 1018.4 |
| 20260503175158 | 15 | 150 | 11.3 | 25.7 | 0.00 | 0.00 | 0.00 | 40 | 1018.3 |
| 20260503174759 | 15 | 215 | 9.7 | 19.3 | 0.00 | 0.00 | 0.00 | 43 | 1018.4 |
| 20260503174559 | 15 | 216 | 9.7 | 19.3 | 0.00 | 0.00 | 0.00 | 45 | 1018.4 |
| 20260503174359 | 15 | 181 | 11.3 | 20.9 | 0.00 | 0.00 | 0.00 | 40 | 1018.4 |
| 20260503173759 | 15 | 158 | 14.5 | 27.4 | 0.00 | 0.00 | 0.00 | 42 | 1018.6 |
| 20260503173559 | 15 | 188 | 14.5 | 27.4 | 0.00 | 0.00 | 0.00 | 42 | 1018.5 |
| 20260503173358 | 15 | 144 | 12.9 | 27.4 | 0.00 | 0.00 | 0.00 | 44 | 1018.6 |
| 20260503173159 | 15 | 163 | 12.9 | 24.1 | 0.00 | 0.00 | 0.00 | 43 | 1018.7 |
| 20260503172959 | 15 | 232 | 12.9 | 24.1 | 0.00 | 0.00 | 0.00 | 42 | 1018.8 |
| 20260503172759 | 15 | 217 | 12.9 | 24.1 | 0.00 | 0.00 | 0.00 | 43 | 1018.7 |
| 20260503172559 | 15 | 190 | 11.3 | 24.1 | 0.00 | 0.00 | 0.00 | 43 | 1018.7 |
| 20260503172359 | 15 | 223 | 11.3 | 24.1 | 0.00 | 0.00 | 0.00 | 42 | 1018.8 |
| 20260503172158 | 15 | 198 | 11.3 | 24.1 | 0.00 | 0.00 | 0.00 | 44 | 1018.8 |
| 20260503171758 | 15 | 143 | 9.7 | 20.9 | 0.00 | 0.00 | 0.00 | 45 | 1018.8 |
| 20260503171600 | 15 | 192 | 11.3 | 20.9 | 0.00 | 0.00 | 0.00 | 46 | 1018.9 |
| 20260503171359 | 15 | 246 | 11.3 | 20.9 | 0.00 | 0.00 | 0.00 | 42 | 1019.0 |
| 20260503171159 | 15 | 177 | 9.7 | 20.9 | 0.00 | 0.00 | 0.00 | 44 | 1018.9 |
| 20260503170959 | 15 | 199 | 9.7 | 22.5 | 0.00 | 0.00 | 0.00 | 44 | 1018.9 |
| 20260503170759 | 15 | 148 | 11.3 | 24.1 | 0.00 | 0.00 | 0.00 | 41 | 1019.0 |
| 20260503170601 | 14 | 167 | 11.3 | 27.4 | 0.00 | 0.00 | 0.00 | 44 | 1019.0 |
| 20260503170359 | 14 | 250 | 11.3 | 27.4 | 0.00 | 0.00 | 0.00 | 42 | 1019.1 |
| 20260503170158 | 14 | 223 | 12.9 | 27.4 | 0.00 | 0.00 | 0.00 | 42 | 1019.2 |
| 20260503160200 | 13 | 279 | 9.7 | 19.3 | 0.00 | 0.00 | 0.00 | 42 | 1019.8 |
| 20260503151000 | 12 | 230 | 9.7 | 17.7 | 0.00 | 0.00 | 0.00 | 47 | 1020.4 |
| 20260503150759 | 12 | 202 | 8.0 | 17.7 | 0.00 | 0.00 | 0.00 | 49 | 1020.4 |
| 20260503150558 | 13 | 200 | 8.0 | 17.7 | 0.00 | 0.00 | 0.00 | 48 | 1020.4 |
| 20260503150359 | 12 | 227 | 8.0 | 14.5 | 0.00 | 0.00 | 0.00 | 48 | 1020.4 |
| 20260503150159 | 12 | 184 | 8.0 | 14.5 | 0.00 | 0.00 | 0.00 | 49 | 1020.4 |
| 20260503140158 | 10 | 243 | 8.0 | 19.3 | 0.00 | 0.00 | 0.00 | 64 | 1020.4 |
| 20260503131358 | 7 | 207 | 6.4 | 12.9 | 0.00 | 0.00 | 0.00 | 78 | 1020.5 |
| 20260503131159 | 7 | 214 | 6.4 | 12.9 | 0.00 | 0.00 | 0.00 | 79 | 1020.6 |
| 20260503130759 | 7 | 169 | 6.4 | 16.1 | 0.00 | 0.00 | 0.00 | 83 | 1020.5 |
| 20260503130559 | 7 | 208 | 6.4 | 16.1 | 0.00 | 0.00 | 0.00 | 82 | 1020.5 |
| 20260503130401 | 7 | 198 | 6.4 | 16.1 | 0.00 | 0.00 | 0.00 | 83 | 1020.5 |
| 20260503120159 | 0 | 324 | 0.0 | 0.0 | 0.00 | 0.00 | 0.00 | 98 | 1020.0 |
| 20260503110759 | -2 | 324 | 0.0 | 0.0 | 0.00 | 0.00 | 0.00 | 97 | 1019.8 |
| 20260503110600 | -2 | 324 | 0.0 | 0.0 | 0.00 | 0.00 | 0.00 | 97 | 1019.8 |
| 20260503110359 | -2 | 324 | 0.0 | 0.0 | 0.00 | 0.00 | 0.00 | 97 | 1019.8 |
| 20260503110158 | -2 | 324 | 0.0 | 0.0 | 0.00 | 0.00 | 0.00 | 97 | 1019.8 |
| 20260503100201 | -2 | 324 | 0.0 | 0.0 | 0.00 | 0.00 | 0.00 | 97 | 1019.4 |
| 20260503090359 | -2 | 324 | 0.0 | 0.0 | 0.00 | 0.00 | 0.00 | 96 | 1019.5 |
| 20260503090158 | -2 | 324 | 0.0 | 0.0 | 0.00 | 0.00 | 0.00 | 96 | 1019.5 |
| 20260503081559 | 0 | 324 | 0.0 | 0.0 | 0.00 | 0.00 | 0.00 | 96 | 1019.2 |
| 20260503081358 | 0 | 324 | 0.0 | 0.0 | 0.00 | 0.00 | 0.00 | 96 | 1019.2 |
| 20260503081159 | 0 | 325 | 0.0 | 0.0 | 0.00 | 0.00 | 0.00 | 96 | 1019.2 |
| 20260503080958 | 0 | 324 | 0.0 | 0.0 | 0.00 | 0.00 | 0.00 | 97 | 1019.2 |
| 20260503080759 | 0 | 324 | 0.0 | 0.0 | 0.00 | 0.00 | 0.00 | 97 | 1019.2 |
| 20260503072758 | 0 | 324 | 0.0 | 0.0 | 0.00 | 0.00 | 0.00 | 96 | 1019.1 |
| 20260503072558 | 0 | 324 | 0.0 | 0.0 | 0.00 | 0.00 | 0.00 | 96 | 1019.1 |
| 20260503072358 | 0 | 324 | 0.0 | 0.0 | 0.00 | 0.00 | 0.00 | 96 | 1019.1 |
| 20260503072158 | 0 | 324 | 0.0 | 0.0 | 0.00 | 0.00 | 0.00 | 96 | 1019.1 |
| 20260503071958 | 0 | 324 | 0.0 | 0.0 | 0.00 | 0.00 | 0.00 | 96 | 1019.1 |
| 20260503071758 | 0 | 324 | 0.0 | 0.0 | 0.00 | 0.00 | 0.00 | 96 | 1019.0 |
| 20260503071559 | 0 | 325 | 0.0 | 0.0 | 0.00 | 0.00 | 0.00 | 96 | 1019.1 |
| 20260503071359 | 0 | 324 | 0.0 | 0.0 | 0.00 | 0.00 | 0.00 | 96 | 1019.1 |
| 20260503070958 | 0 | 324 | 0.0 | 0.0 | 0.00 | 0.00 | 0.00 | 95 | 1019.0 |
| 20260503070759 | 0 | 324 | 0.0 | 0.0 | 0.00 | 0.00 | 0.00 | 95 | 1019.1 |
| 20260503070558 | 0 | 324 | 0.0 | 0.0 | 0.00 | 0.00 | 0.00 | 95 | 1019.1 |
| 20260503070359 | 0 | 324 | 0.0 | 0.0 | 0.00 | 0.00 | 0.00 | 95 | 1019.0 |
| 20260503070157 | 0 | 324 | 0.0 | 0.0 | 0.00 | 0.00 | 0.00 | 95 | 1019.1 |
| 20260503060158 | 0 | 325 | 0.0 | 0.0 | 0.00 | 0.00 | 0.00 | 94 | 1019.3 |
| 20260503054758 | 1 | 325 | 0.0 | 0.0 | 0.00 | 0.00 | 0.00 | 94 | 1019.5 |
| 20260503054559 | 1 | 325 | 0.0 | 0.0 | 0.00 | 0.00 | 0.00 | 94 | 1019.5 |
| 20260503054358 | 1 | 325 | 0.0 | 0.0 | 0.00 | 0.00 | 0.00 | 94 | 1019.5 |
| 20260503054158 | 1 | 325 | 0.0 | 0.0 | 0.00 | 0.00 | 0.00 | 94 | 1019.4 |
| 20260503053958 | 1 | 325 | 0.0 | 0.0 | 0.00 | 0.00 | 0.00 | 94 | 1019.4 |
| 20260503053758 | 1 | 325 | 0.0 | 0.0 | 0.00 | 0.00 | 0.00 | 94 | 1019.4 |
| 20260503053558 | 1 | 325 | 0.0 | 0.0 | 0.00 | 0.00 | 0.00 | 94 | 1019.4 |
| 20260503053358 | 1 | 325 | 0.0 | 0.0 | 0.00 | 0.00 | 0.00 | 94 | 1019.4 |
| 20260503053158 | 1 | 325 | 0.0 | 0.0 | 0.00 | 0.00 | 0.00 | 93 | 1019.4 |
| 20260503052958 | 1 | 325 | 0.0 | 0.0 | 0.00 | 0.00 | 0.00 | 94 | 1019.5 |
| 20260503052800 | 1 | 325 | 0.0 | 0.0 | 0.00 | 0.00 | 0.00 | 94 | 1019.5 |
| 20260503052558 | 1 | 324 | 0.0 | 0.0 | 0.00 | 0.00 | 0.00 | 94 | 1019.5 |
| 20260503052358 | 1 | 325 | 0.0 | 0.0 | 0.00 | 0.00 | 0.00 | 94 | 1019.4 |
| 20260503052158 | 1 | 324 | 0.0 | 0.0 | 0.00 | 0.00 | 0.00 | 94 | 1019.4 |
| 20260503051958 | 1 | 324 | 0.0 | 0.0 | 0.00 | 0.00 | 0.00 | 93 | 1019.4 |
| 20260503051758 | 1 | 324 | 0.0 | 0.0 | 0.00 | 0.00 | 0.00 | 93 | 1019.4 |
| 20260503051558 | 1 | 324 | 0.0 | 0.0 | 0.00 | 0.00 | 0.00 | 93 | 1019.3 |
| 20260503051358 | 1 | 324 | 0.0 | 0.0 | 0.00 | 0.00 | 0.00 | 93 | 1019.3 |
| 20260503051158 | 1 | 324 | 0.0 | 0.0 | 0.00 | 0.00 | 0.00 | 93 | 1019.2 |
| 20260503050958 | 2 | 324 | 0.0 | 0.0 | 0.00 | 0.00 | 0.00 | 94 | 1019.2 |
| 20260503050759 | 2 | 324 | 0.0 | 0.0 | 0.00 | 0.00 | 0.00 | 94 | 1019.2 |
| 20260503050359 | 1 | 324 | 0.0 | 0.0 | 0.00 | 0.00 | 0.00 | 93 | 1019.2 |
| 20260503050158 | 1 | 324 | 0.0 | 0.0 | 0.00 | 0.00 | 0.00 | 93 | 1019.2 |
| 20260503050003 | 1 | 324 | 0.0 | 0.0 | 0.00 | 0.00 | 0.00 | 92 | 1019.2 |
| 20260503045759 | 2 | 324 | 0.0 | 0.0 | 0.00 | 0.00 | 0.00 | 92 | 1019.2 |
| 20260503045559 | 2 | 324 | 0.0 | 0.0 | 0.00 | 0.00 | 0.00 | 92 | 1019.2 |
| 20260503045359 | 2 | 324 | 0.0 | 0.0 | 0.00 | 0.00 | 0.00 | 93 | 1019.1 |
| 20260503045159 | 2 | 324 | 0.0 | 0.0 | 0.00 | 0.00 | 0.00 | 93 | 1019.2 |
| 20260503044959 | 2 | 324 | 0.0 | 0.0 | 0.00 | 0.00 | 0.00 | 92 | 1019.2 |
| 20260503044759 | 2 | 324 | 0.0 | 0.0 | 0.00 | 0.00 | 0.00 | 92 | 1019.2 |
| 20260503044359 | 2 | 324 | 0.0 | 0.0 | 0.00 | 0.00 | 0.00 | 91 | 1019.2 |
| 20260503044159 | 1 | 324 | 0.0 | 0.0 | 0.00 | 0.00 | 0.00 | 91 | 1019.2 |
| 20260503043959 | 2 | 324 | 0.0 | 0.0 | 0.00 | 0.00 | 0.00 | 90 | 1019.2 |
| 20260503043759 | 2 | 324 | 0.0 | 0.0 | 0.00 | 0.00 | 0.00 | 90 | 1019.3 |
| 20260503043600 | 2 | 324 | 0.0 | 0.0 | 0.00 | 0.00 | 0.00 | 90 | 1019.2 |
| 20260503043359 | 2 | 324 | 0.0 | 0.0 | 0.00 | 0.00 | 0.00 | 90 | 1019.2 |
| 20260503043159 | 2 | 324 | 0.0 | 0.0 | 0.00 | 0.00 | 0.00 | 90 | 1019.2 |
| 20260503043000 | 2 | 324 | 0.0 | 0.0 | 0.00 | 0.00 | 0.00 | 91 | 1019.3 |
| 20260503042759 | 2 | 324 | 0.0 | 0.0 | 0.00 | 0.00 | 0.00 | 91 | 1019.2 |
| 20260503042600 | 2 | 324 | 0.0 | 0.0 | 0.00 | 0.00 | 0.00 | 91 | 1019.3 |
| 20260503042359 | 2 | 324 | 0.0 | 0.0 | 0.00 | 0.00 | 0.00 | 90 | 1019.4 |
| 20260503041959 | 2 | 324 | 0.0 | 0.0 | 0.00 | 0.00 | 0.00 | 90 | 1019.2 |
| 20260503041759 | 2 | 324 | 0.0 | 0.0 | 0.00 | 0.00 | 0.00 | 90 | 1019.2 |
| 20260503041559 | 2 | 324 | 0.0 | 0.0 | 0.00 | 0.00 | 0.00 | 90 | 1019.2 |
| 20260503041359 | 2 | 324 | 0.0 | 0.0 | 0.00 | 0.00 | 0.00 | 90 | 1019.2 |
| 20260503041159 | 2 | 324 | 0.0 | 0.0 | 0.00 | 0.00 | 0.00 | 89 | 1019.2 |
| 20260503040959 | 2 | 324 | 0.0 | 0.0 | 0.00 | 0.00 | 0.00 | 89 | 1019.2 |
| 20260503040759 | 2 | 324 | 0.0 | 0.0 | 0.00 | 0.00 | 0.00 | 89 | 1019.2 |
| 20260503040559 | 2 | 324 | 0.0 | 0.0 | 0.00 | 0.00 | 0.00 | 89 | 1019.2 |
| 20260503040400 | 2 | 324 | 0.0 | 0.0 | 0.00 | 0.00 | 0.00 | 89 | 1019.1 |
| 20260503040201 | 2 | 324 | 0.0 | 0.0 | 0.00 | 0.00 | 0.00 | 89 | 1019.1 |
| 20260503035800 | 2 | 324 | 0.0 | 0.0 | 0.00 | 0.00 | 0.00 | 88 | 1019.2 |
| 20260503035559 | 3 | 324 | 0.0 | 0.0 | 0.00 | 0.00 | 0.00 | 88 | 1019.2 |
| 20260503035359 | 3 | 324 | 0.0 | 0.0 | 0.00 | 0.00 | 0.00 | 88 | 1019.2 |
| 20260503035159 | 3 | 324 | 0.0 | 0.0 | 0.00 | 0.00 | 0.00 | 88 | 1019.2 |
| 20260503035000 | 3 | 324 | 0.0 | 0.0 | 0.00 | 0.00 | 0.00 | 88 | 1019.2 |
| 20260503034759 | 3 | 324 | 0.0 | 0.0 | 0.00 | 0.00 | 0.00 | 88 | 1019.1 |
| 20260503034559 | 3 | 324 | 0.0 | 0.0 | 0.00 | 0.00 | 0.00 | 88 | 1019.1 |
| 20260503034359 | 3 | 324 | 0.0 | 0.0 | 0.00 | 0.00 | 0.00 | 87 | 1019.2 |
| 20260503034159 | 3 | 324 | 0.0 | 0.0 | 0.00 | 0.00 | 0.00 | 87 | 1019.1 |
| 20260503033959 | 3 | 324 | 0.0 | 0.0 | 0.00 | 0.00 | 0.00 | 86 | 1019.1 |
| 20260503033759 | 3 | 324 | 0.0 | 0.0 | 0.00 | 0.00 | 0.00 | 86 | 1019.1 |
| 20260503033200 | 3 | 324 | 0.0 | 0.0 | 0.00 | 0.00 | 0.00 | 86 | 1019.0 |
| 20260503033000 | 3 | 324 | 0.0 | 0.0 | 0.00 | 0.00 | 0.00 | 86 | 1019.1 |
| 20260503032759 | 3 | 324 | 0.0 | 0.0 | 0.00 | 0.00 | 0.00 | 86 | 1019.1 |
| 20260503032601 | 3 | 324 | 0.0 | 0.0 | 0.00 | 0.00 | 0.00 | 86 | 1019.1 |
| 20260503032359 | 3 | 324 | 0.0 | 0.0 | 0.00 | 0.00 | 0.00 | 85 | 1019.1 |
| 20260503032159 | 3 | 324 | 0.0 | 0.0 | 0.00 | 0.00 | 0.00 | 85 | 1019.1 |
| 20260503032000 | 4 | 324 | 0.0 | 0.0 | 0.00 | 0.00 | 0.00 | 85 | 1019.1 |
| 20260503031559 | 4 | 324 | 0.0 | 0.0 | 0.00 | 0.00 | 0.00 | 84 | 1019.0 |
| 20260503031359 | 4 | 324 | 0.0 | 0.0 | 0.00 | 0.00 | 0.00 | 84 | 1019.0 |
| 20260503031200 | 4 | 324 | 0.0 | 0.0 | 0.00 | 0.00 | 0.00 | 83 | 1019.0 |
| 20260503031000 | 4 | 324 | 0.0 | 0.0 | 0.00 | 0.00 | 0.00 | 83 | 1019.0 |
| 20260503030759 | 5 | 324 | 0.0 | 0.0 | 0.00 | 0.00 | 0.00 | 83 | 1019.0 |
| 20260503030559 | 5 | 324 | 0.0 | 0.0 | 0.00 | 0.00 | 0.00 | 83 | 1018.9 |
| 20260503030359 | 5 | 324 | 0.0 | 0.0 | 0.00 | 0.00 | 0.00 | 82 | 1018.9 |
| 20260503030159 | 5 | 324 | 0.0 | 0.0 | 0.00 | 0.00 | 0.00 | 81 | 1018.9 |
| 20260503030002 | 5 | 324 | 0.0 | 0.0 | 0.00 | 0.00 | 0.00 | 81 | 1018.9 |
| 20260503025801 | 5 | 324 | 0.0 | 0.0 | 0.00 | 0.00 | 0.00 | 81 | 1019.0 |
| 20260503025559 | 5 | 324 | 0.0 | 0.0 | 0.00 | 0.00 | 0.00 | 81 | 1018.9 |
| 20260503025400 | 5 | 324 | 0.0 | 0.0 | 0.00 | 0.00 | 0.00 | 80 | 1018.9 |
| 20260503025159 | 5 | 324 | 0.0 | 0.0 | 0.00 | 0.00 | 0.00 | 81 | 1018.9 |
| 20260503024759 | 5 | 324 | 0.0 | 0.0 | 0.00 | 0.00 | 0.00 | 80 | 1018.9 |
| 20260503024600 | 5 | 324 | 0.0 | 0.0 | 0.00 | 0.00 | 0.00 | 81 | 1018.9 |
| 20260503023959 | 6 | 324 | 0.0 | 0.0 | 0.00 | 0.00 | 0.00 | 81 | 1018.8 |
| 20260503023800 | 6 | 324 | 0.0 | 0.0 | 0.00 | 0.00 | 0.00 | 80 | 1018.8 |